Glenwood, MN

1:32 PM CDT on October 22, 2017 (GMT -0500)
Glenwood Municipal

Weather History for KGHW - October, 2011

Change the Weather History Date:

Friday, October 14, 2011

  Actual Average Record
Temperature  
Mean Temperature 48 °F -  
Max Temperature 53 °F 60 °F 84 °F (1962)
Min Temperature 42 °F 35 °F 19 °F (1986)
Degree Days  
Heating Degree Days 18    
Moisture  
Dew Point 38 °F    
Average Humidity 72    
Maximum Humidity 93    
Minimum Humidity 47    
Precipitation  
Precipitation 0.00 in - - ()
Sea Level Pressure  
Sea Level Pressure 29.77 in    
Wind  
Wind Speed 14 mph (WNW)    
Max Wind Speed 31 mph    
Max Gust Speed 37 mph    
Visibility 10 miles    
Events      
Averages and records for this station are not official NWS values.
T = Trace of Precipitation, MM = Missing Value Source: NWS Daily Summary

Daily Weather History Graph

Daily Weather History Graph

Search for Another Location

Airport or City:

Trip Planner

Search our weather history database for the weather conditions in past years. The results will help you decide how hot, cold, wet, or windy it might be!

Date:

Astronomy

Oct. 14, 2011 Rise Set
Actual Time 7:36 AM CDT 6:37 PM CDT
Civil Twilight 7:06 AM CDT 7:07 PM CDT
Nautical Twilight 6:31 AM CDT 7:41 PM CDT
Astronomical Twilight 5:57 AM CDT 8:16 PM CDT
Moon 7:40 PM CDT (10/14) 10:16 AM CDT (10/14)
Length of Visible Light 12h 01m
Length of Day
11h 01m
Waning Gibbous, 94% of the Moon is Illuminated
Oct 14
Waning Gibbous
Oct 19
Last Quarter
Oct 26
New
Nov 2
First Quarter
Nov 10
Full

Hourly Weather History & Observations

Time (CDT) Temp. Windchill Dew Point Humidity Pressure Visibility Wind Dir Wind Speed Gust Speed Precip Events Conditions
12:14 AM 46.4 °F 41.9 °F 42.8 °F 87% 29.69 in 10.0 mi WNW 9.2 mph - N/A   Clear
12:33 AM 44.6 °F 39.2 °F 42.8 °F 93% 29.68 in 10.0 mi WNW 10.4 mph - N/A   Clear
12:53 AM 44.6 °F 38.8 °F 42.8 °F 93% 29.68 in 10.0 mi West 11.5 mph - N/A   Clear
1:13 AM 44.6 °F 39.7 °F 41.0 °F 87% 29.69 in 10.0 mi West 9.2 mph - N/A   Clear
1:33 AM 44.6 °F 38.8 °F 42.8 °F 93% 29.69 in 10.0 mi West 11.5 mph - N/A   Clear
1:53 AM 44.6 °F 38.4 °F 42.8 °F 93% 29.69 in 10.0 mi West 12.7 mph 17.3 mph N/A   Scattered Clouds
2:13 AM 44.6 °F 39.2 °F 41.0 °F 87% 29.70 in 10.0 mi West 10.4 mph - N/A   Scattered Clouds
2:33 AM 44.6 °F 39.2 °F 41.0 °F 87% 29.70 in 10.0 mi West 10.4 mph - N/A   Clear
2:53 AM 44.6 °F 38.8 °F 41.0 °F 87% 29.70 in 10.0 mi WNW 11.5 mph - N/A   Clear
3:14 AM 44.6 °F 38.4 °F 42.8 °F 93% 29.70 in 10.0 mi WNW 12.7 mph - N/A   Scattered Clouds
3:33 AM 44.6 °F 38.1 °F 42.8 °F 93% 29.70 in 10.0 mi WNW 13.8 mph - N/A   Mostly Cloudy
3:53 AM 44.6 °F 38.4 °F 42.8 °F 93% 29.71 in 10.0 mi WNW 12.7 mph - N/A   Overcast
4:13 AM 46.4 °F 40.7 °F 42.8 °F 87% 29.71 in 10.0 mi NW 12.7 mph - N/A   Overcast
4:33 AM 44.6 °F 38.4 °F 41.0 °F 87% 29.71 in 10.0 mi WNW 12.7 mph 18.4 mph N/A   Overcast
4:53 AM 44.6 °F 38.4 °F 41.0 °F 87% 29.71 in 10.0 mi WNW 12.7 mph - N/A   Mostly Cloudy
5:14 AM 42.8 °F 37.0 °F 39.2 °F 87% 29.72 in 10.0 mi WNW 10.4 mph - N/A   Scattered Clouds
5:33 AM 44.6 °F 39.2 °F 39.2 °F 81% 29.72 in 10.0 mi WNW 10.4 mph - N/A   Scattered Clouds
5:53 AM 42.8 °F 36.6 °F 39.2 °F 87% 29.72 in 10.0 mi WNW 11.5 mph 16.1 mph N/A   Mostly Cloudy
6:13 AM 44.6 °F 38.4 °F 39.2 °F 81% 29.73 in 10.0 mi WNW 12.7 mph - N/A   Overcast
6:53 AM 44.6 °F 38.4 °F 37.4 °F 76% 29.73 in 10.0 mi NW 12.7 mph - N/A   Overcast
7:14 AM 42.8 °F 35.8 °F 37.4 °F 81% 29.73 in 10.0 mi NW 13.8 mph 17.3 mph N/A   Overcast
7:33 AM 42.8 °F 36.6 °F 37.4 °F 81% 29.74 in 10.0 mi WNW 11.5 mph - N/A   Mostly Cloudy
8:13 AM 44.6 °F 37.4 °F 35.6 °F 71% 29.74 in 10.0 mi WNW 16.1 mph 21.9 mph N/A   Scattered Clouds
8:33 AM 44.6 °F 38.4 °F 35.6 °F 71% 29.76 in 10.0 mi NW 12.7 mph 21.9 mph N/A   Clear
8:53 AM 44.6 °F 36.4 °F 35.6 °F 71% 29.76 in 10.0 mi NW 20.7 mph 25.3 mph N/A   Clear
9:14 AM 44.6 °F 37.2 °F 35.6 °F 71% 29.77 in 10.0 mi NW 17.3 mph 25.3 mph N/A   Scattered Clouds
9:33 AM 44.6 °F 36.9 °F 35.6 °F 71% 29.77 in 10.0 mi NW 18.4 mph 24.2 mph N/A   Mostly Cloudy
9:53 AM 46.4 °F 39.8 °F 35.6 °F 66% 29.78 in 10.0 mi NW 16.1 mph 24.2 mph N/A   Scattered Clouds
10:13 AM 46.4 °F 39.2 °F 35.6 °F 66% 29.78 in 10.0 mi NW 18.4 mph 24.2 mph N/A   Clear
10:33 AM 46.4 °F 40.1 °F 33.8 °F 62% 29.78 in 10.0 mi NW 15.0 mph 26.5 mph N/A   Scattered Clouds
11:33 AM 48.2 °F - 35.6 °F 62% 29.79 in 10.0 mi NW 13.8 mph 31.1 mph N/A   Mostly Cloudy
11:53 AM 48.2 °F - 35.6 °F 62% 29.79 in 10.0 mi NW 18.4 mph 26.5 mph N/A   Mostly Cloudy
12:13 PM 51.8 °F - 35.6 °F 54% 29.80 in 10.0 mi NW 19.6 mph 24.2 mph N/A   Scattered Clouds
12:33 PM 51.8 °F - 35.6 °F 54% 29.80 in 10.0 mi WNW 16.1 mph 27.6 mph N/A   Scattered Clouds
12:54 PM 53.6 °F - 33.8 °F 47% 29.79 in 10.0 mi WNW 19.6 mph 29.9 mph N/A   Scattered Clouds
1:13 PM 53.6 °F - 35.6 °F 51% 29.79 in 10.0 mi WNW 19.6 mph - N/A   Scattered Clouds
1:33 PM 53.6 °F - 33.8 °F 47% 29.79 in 10.0 mi WNW 24.2 mph 29.9 mph N/A   Scattered Clouds
2:14 PM 53.6 °F - 35.6 °F 51% 29.79 in 10.0 mi NW 20.7 mph 25.3 mph N/A   Overcast
2:33 PM 53.6 °F - 37.4 °F 54% 29.78 in 10.0 mi West 24.2 mph - N/A   Mostly Cloudy
2:53 PM 51.8 °F - 37.4 °F 58% 29.79 in 10.0 mi West 17.3 mph 32.2 mph N/A   Mostly Cloudy
3:13 PM 51.8 °F - 39.2 °F 62% 29.79 in 10.0 mi West 24.2 mph 32.2 mph N/A   Mostly Cloudy
3:33 PM 53.6 °F - 39.2 °F 58% 29.80 in 10.0 mi West 21.9 mph 26.5 mph N/A   Scattered Clouds
3:54 PM 51.8 °F - 41.0 °F 67% 29.79 in 10.0 mi West 19.6 mph 29.9 mph N/A   Mostly Cloudy
4:13 PM 51.8 °F - 41.0 °F 67% 29.80 in 10.0 mi West 19.6 mph 26.5 mph N/A   Mostly Cloudy
4:33 PM 51.8 °F - 39.2 °F 62% 29.80 in 10.0 mi WNW 24.2 mph 28.8 mph N/A   Mostly Cloudy
4:53 PM 53.6 °F - 39.2 °F 58% 29.80 in 10.0 mi West 23.0 mph 33.4 mph N/A   Overcast
5:13 PM 51.8 °F - 39.2 °F 62% 29.80 in 7.0 mi WNW 31.1 mph 36.8 mph N/A   Overcast
5:33 PM 48.2 °F - 42.8 °F 82% 29.81 in 10.0 mi WNW 18.4 mph 29.9 mph N/A   Mostly Cloudy
5:53 PM 48.2 °F - 41.0 °F 76% 29.82 in 10.0 mi WNW 16.1 mph 24.2 mph N/A   Mostly Cloudy
6:14 PM 48.2 °F - 41.0 °F 76% 29.82 in 10.0 mi WNW 17.3 mph 24.2 mph N/A   Scattered Clouds
6:33 PM 48.2 °F - 39.2 °F 71% 29.83 in 10.0 mi WNW 18.4 mph 25.3 mph N/A   Scattered Clouds
6:53 PM 48.2 °F - 37.4 °F 66% 29.83 in 10.0 mi WNW 18.4 mph 26.5 mph N/A   Scattered Clouds
7:13 PM 48.2 °F - 37.4 °F 66% 29.84 in 10.0 mi WNW 16.1 mph - N/A   Scattered Clouds
7:33 PM 48.2 °F - 37.4 °F 66% 29.85 in 10.0 mi WNW 15.0 mph 21.9 mph N/A   Scattered Clouds
7:53 PM 48.2 °F - 37.4 °F 66% 29.85 in 10.0 mi WNW 17.3 mph - N/A   Overcast
8:13 PM 48.2 °F - 35.6 °F 62% 29.85 in 10.0 mi WNW 20.7 mph 27.6 mph N/A   Overcast
8:33 PM 48.2 °F - 35.6 °F 62% 29.85 in 10.0 mi WNW 15.0 mph 25.3 mph N/A   Overcast
8:53 PM 46.4 °F 40.7 °F 33.8 °F 62% 29.85 in 10.0 mi West 12.7 mph - N/A   Mostly Cloudy
9:13 PM 46.4 °F 41.1 °F 35.6 °F 66% 29.85 in 10.0 mi West 11.5 mph 16.1 mph N/A   Scattered Clouds
9:33 PM 44.6 °F 38.4 °F 35.6 °F 71% 29.85 in 10.0 mi West 12.7 mph - N/A   Clear
9:53 PM 44.6 °F 38.8 °F 35.6 °F 71% 29.85 in 10.0 mi West 11.5 mph - N/A   Clear
10:13 PM 44.6 °F 38.4 °F 35.6 °F 71% 29.85 in 10.0 mi West 12.7 mph 17.3 mph N/A   Clear
10:33 PM 44.6 °F 37.8 °F 35.6 °F 71% 29.85 in 10.0 mi West 15.0 mph - N/A   Clear
10:53 PM 44.6 °F 37.4 °F 35.6 °F 71% 29.85 in 10.0 mi West 16.1 mph - N/A   Clear
11:13 PM 44.6 °F 37.8 °F 35.6 °F 71% 29.85 in 10.0 mi West 15.0 mph 23.0 mph N/A   Clear
11:33 PM 44.6 °F 37.4 °F 35.6 °F 71% 29.85 in 10.0 mi West 16.1 mph 23.0 mph N/A   Clear
11:53 PM 44.6 °F 37.4 °F 35.6 °F 71% 29.85 in 10.0 mi West 16.1 mph 21.9 mph N/A   Clear